Simultaneous Nadir Overpasses (SNOs) Predictions

Prediction of SNOs between GOES-14 and NOAA-20 Satellite Orbit:

Table of predicted SNOs for the next 14.0 days since TLE Epoch: 10/16/2021
Index Date Time (GOES-14) GOES-14 Lat,Lon NOAA-20 Lat,Lon Distance(km) Time Diff (sec)
1 10/16/2021 20:11:04 -0.26,-104.20 0.38,-101.38 321.37 80
2 10/18/2021 08:32:51 0.23,-104.29 0.78,-106.65 270.15 80
3 10/19/2021 08:11:26 0.25,-104.28 -0.22,-102.12 245.75 80
4 10/20/2021 20:33:22 -0.22,-104.18 -0.93,-107.43 369.01 80
5 10/21/2021 20:17:17 -0.24,-104.20 0.06,-102.89 149.30 80
6 10/23/2021 08:39:04 0.21,-104.32 1.09,-108.16 438.05 80
7 10/24/2021 08:17:39 0.23,-104.31 0.10,-103.62 77.83 80
8 10/26/2021 20:20:49 -0.21,-104.19 -0.24,-104.40 23.23 80
9 10/27/2021 20:04:44 -0.22,-104.20 0.76, -99.86 494.81 80
10 10/29/2021 08:26:32 0.19,-104.34 0.34,-105.14 91.35 80
